Hourly Data Report for October 18, 2013

All times are specified in Local Standard Time (LST). Add 1 hour to adjust for Daylight Saving Time where and when it is observed.

TORONTO INTL A
ONTARIO

43°40'36.000" N
79°37'50.000" W
173.40 m
6158731
71624
YYZ

Download Data

Hourly Data (October 2013)
Hourly Data Report for October 18, 2013
Temp Definition
°C
Dew Point Temp Definition
°C
Rel Hum Definition
%
Wind Dir Definition
10's deg

Wind Spd Definition
km/h
Visibility Definition
km
Stn Press Definition
kPa
Hmdx Definition


Wind Chill Definition


Weather Definition


TIME
00:00 Legend Double Dagger 10.4 8.4 87 25 22 16.1 98.56     LegendNANA
01:00 Legend Double Dagger 9.6 7.9 89 26 19 19.3 98.59     Mostly Cloudy
02:00 Legend Double Dagger 10.0 8.1 88 26 18 19.3 98.62     LegendNANA
03:00 Legend Double Dagger 10.1 8.4 89 26 12 16.1 98.61     LegendNANA
04:00 Legend Double Dagger 10.2 8.5 89 30 17 16.1 98.67     Rain
05:00 Legend Double Dagger 9.2 8.0 92 27 14 19.3 98.75     LegendNANA
06:00 Legend Double Dagger 8.4 6.5 88 26 21 24.1 98.81     LegendNANA
07:00 Legend Double Dagger 8.4 5.9 84 26 22 24.1 98.88     Clear
08:00 Legend Double Dagger 8.8 5.6 80 25 27 24.1 98.97     LegendNANA
09:00 Legend Double Dagger 10.1 5.9 75 25 30 24.1 99.04     LegendNANA
10:00 Legend Double Dagger 11.5 5.6 67 25 31 24.1 99.07     Mainly Clear
11:00 Legend Double Dagger 12.1 5.1 62 25 29 24.1 99.09     LegendNANA
12:00 Legend Double Dagger 12.6 3.3 53 27 28 24.1 99.06     LegendNANA
13:00 Legend Double Dagger 13.4 4.9 56 25 29 24.1 99.05     Mostly Cloudy
14:00 Legend Double Dagger 14.0 5.2 55 26 25 24.1 99.02     LegendNANA
15:00 Legend Double Dagger 14.2 4.6 52 25 21 24.1 98.99     LegendNANA
16:00 Legend Double Dagger 14.3 4.1 50 24 21 24.1 99.00     Mostly Cloudy
17:00 Legend Double Dagger 12.6 4.6 58 25 14 24.1 99.00     LegendNANA
18:00 Legend Double Dagger 12.2 4.2 58 24 9 24.1 99.02     LegendNANA
19:00 Legend Double Dagger 12.6 4.4 57 17 6 24.1 99.06     Clear
20:00 Legend Double Dagger 11.9 5.6 65 21 7 24.1 99.08     LegendNANA
21:00 Legend Double Dagger 11.5 6.3 70 19 6 24.1 99.10     LegendNANA
22:00 Legend Double Dagger 10.7 6.7 76 24 3 24.1 99.05     Clear
23:00 Legend Double Dagger 9.6 6.7 82 23 5 24.1 99.01     LegendNANA

Notes on Data Quality.

Legend

  • E = Estimated
  • M = Missing
  • NA = Not Available
  • ‡ = Partner data that is not subject to review by the National Climate Archives
Date modified: